THY6GT LTAJ-LTFM

Flight info

Callsign THY6GT
Flight time 1h 27m
Altitude 36000
Route POGEN UL605 BELSU UA17 BALAX UL605 YAVRU UA4 ERSEN
Aircraft B738/M-SDE2E3FGHIRWXY/LB1

Departure

Time 2026-05-07 20:59
Airport Gaziantep Oğuzeli International Airport (LTAJ)

Arrival

Time 2026-05-07 22:27
Airport İstanbul Airport (LTFM)
Time Latitude Longitude Altitude Speed Heading
2026-05-07 19:56 36.94482 37.47955 2320 ft 0 kts 195°
2026-05-07 20:43 36.94487 37.47957 2320 ft 2 kts 195°
2026-05-07 20:44 36.94501 37.47961 2320 ft 2 kts 195°
2026-05-07 20:44 36.94516 37.47966 2320 ft 2 kts 192°
2026-05-07 20:44 36.94530 37.47964 2320 ft 2 kts 151°
2026-05-07 20:44 36.94541 37.47951 2320 ft 2 kts 118°
2026-05-07 20:45 36.94546 37.47934 2320 ft 2 kts 101°
2026-05-07 20:45 36.94550 37.47916 2320 ft 2 kts 108°
2026-05-07 20:45 36.94554 37.47898 2320 ft 2 kts 105°
2026-05-07 20:45 36.94558 37.47880 2320 ft 2 kts 106°
2026-05-07 20:46 36.94562 37.47862 2320 ft 2 kts 105°
2026-05-07 20:46 36.94566 37.47844 2320 ft 2 kts 106°
2026-05-07 20:46 36.94570 37.47826 2320 ft 2 kts 105°
2026-05-07 20:46 36.94574 37.47808 2320 ft 2 kts 106°
2026-05-07 20:47 36.94578 37.47790 2320 ft 2 kts 106°
2026-05-07 20:47 36.94582 37.47772 2320 ft 2 kts 106°
2026-05-07 20:47 36.94586 37.47754 2320 ft 2 kts 106°
2026-05-07 20:47 36.94590 37.47736 2320 ft 2 kts 105°
2026-05-07 20:48 36.94594 37.47718 2320 ft 2 kts 106°
2026-05-07 20:48 36.94598 37.47700 2320 ft 2 kts 106°
2026-05-07 20:48 36.94602 37.47682 2320 ft 2 kts 106°
2026-05-07 20:48 36.94606 37.47664 2320 ft 2 kts 105°
2026-05-07 20:49 36.94610 37.47646 2320 ft 2 kts 106°
2026-05-07 20:49 36.94614 37.47628 2320 ft 2 kts 106°
2026-05-07 20:49 36.94618 37.47610 2320 ft 2 kts 106°
2026-05-07 20:49 36.94622 37.47592 2320 ft 2 kts 106°
2026-05-07 20:50 36.94626 37.47574 2320 ft 2 kts 105°
2026-05-07 20:50 36.94630 37.47555 2320 ft 2 kts 106°
2026-05-07 20:50 36.94634 37.47537 2320 ft 2 kts 105°
2026-05-07 20:50 36.94638 37.47519 2320 ft 2 kts 106°
2026-05-07 20:51 36.94642 37.47501 2320 ft 2 kts 106°
2026-05-07 20:51 36.94647 37.47484 2320 ft 2 kts 106°
2026-05-07 20:51 36.94650 37.47466 2320 ft 2 kts 106°
2026-05-07 20:51 36.94655 37.47448 2320 ft 2 kts 106°
2026-05-07 20:52 36.94659 37.47430 2320 ft 2 kts 107°
2026-05-07 20:52 36.94663 37.47411 2320 ft 2 kts 107°
2026-05-07 20:52 36.94667 37.47394 2320 ft 2 kts 107°
2026-05-07 20:52 36.94671 37.47377 2320 ft 1 kts 107°
2026-05-07 20:53 36.94671 37.47376 2320 ft 0 kts 107°
2026-05-07 20:53 36.94671 37.47377 2320 ft 0 kts 107°
2026-05-07 20:54 36.94670 37.47383 2320 ft 2 kts 106°
2026-05-07 20:54 36.94673 37.47416 2320 ft 5 kts 54°
2026-05-07 20:55 36.94714 37.47443 2320 ft 6 kts 59°
2026-05-07 20:55 36.94716 37.47513 2320 ft 11 kts 105°
2026-05-07 20:55 36.94687 37.47648 2320 ft 20 kts 106°
2026-05-07 20:55 36.94650 37.47819 2320 ft 20 kts 105°
2026-05-07 20:56 36.94614 37.47985 2320 ft 19 kts 105°
2026-05-07 20:56 36.94580 37.48145 2320 ft 18 kts 105°
2026-05-07 20:56 36.94546 37.48303 2320 ft 19 kts 105°
2026-05-07 20:56 36.94509 37.48475 2320 ft 21 kts 105°
2026-05-07 20:57 36.94469 37.48662 2320 ft 23 kts 105°
2026-05-07 20:57 36.94427 37.48856 2320 ft 22 kts 105°
2026-05-07 20:57 36.94387 37.49040 2320 ft 21 kts 105°
2026-05-07 20:57 36.94349 37.49217 2320 ft 20 kts 105°
2026-05-07 20:58 36.94320 37.49355 2320 ft 14 kts 104°
2026-05-07 20:58 36.94361 37.49413 2320 ft 8 kts 15°
2026-05-07 20:58 36.94425 37.49434 2320 ft 10 kts 13°
2026-05-07 20:58 36.94476 37.49390 2320 ft 9 kts 287°
2026-05-07 20:59 36.94514 37.49218 2320 ft 49 kts 285°
2026-05-07 20:59 36.94667 37.48505 2320 ft 118 kts 285°
2026-05-07 20:59 36.94936 37.47256 2331 ft 174 kts 285°
2026-05-07 20:59 36.95246 37.45794 2983 ft 179 kts 285°
2026-05-07 21:00 36.95548 37.44273 3714 ft 185 kts 284°
2026-05-07 21:00 36.95843 37.42694 4235 ft 193 kts 284°
2026-05-07 21:00 36.96152 37.40993 4654 ft 207 kts 284°
2026-05-07 21:00 36.96478 37.39190 5013 ft 226 kts 284°
2026-05-07 21:01 36.96836 37.37201 5469 ft 241 kts 285°
2026-05-07 21:01 36.97215 37.35104 5983 ft 255 kts 285°
2026-05-07 21:01 36.97617 37.32885 6501 ft 270 kts 284°
2026-05-07 21:01 36.98039 37.30571 7167 ft 277 kts 284°
2026-05-07 21:02 36.98474 37.28201 7880 ft 282 kts 285°
2026-05-07 21:02 36.98910 37.25825 8657 ft 285 kts 285°
2026-05-07 21:02 36.99356 37.23384 9404 ft 288 kts 285°
2026-05-07 21:02 36.99797 37.20978 10136 ft 290 kts 285°
2026-05-07 21:03 37.00411 37.18531 10664 ft 299 kts 296°
2026-05-07 21:03 37.01618 37.16357 11060 ft 310 kts 315°
2026-05-07 21:03 37.03188 37.14462 11435 ft 324 kts 319°
2026-05-07 21:03 37.04546 37.12928 11718 ft 336 kts 319°
2026-05-07 21:04 37.06106 37.11150 12069 ft 348 kts 318°
2026-05-07 21:04 37.07668 37.09334 12718 ft 350 kts 317°
2026-05-07 21:04 37.09847 37.06747 13546 ft 355 kts 316°
2026-05-07 21:04 37.11638 37.04631 14294 ft 356 kts 318°
2026-05-07 21:05 37.13564 37.02627 14983 ft 360 kts 322°
2026-05-07 21:05 37.15561 37.00783 15682 ft 362 kts 324°
2026-05-07 21:05 37.17618 36.98975 16327 ft 365 kts 324°
2026-05-07 21:05 37.19697 36.97161 17001 ft 367 kts 324°
2026-05-07 21:06 37.21797 36.95311 17654 ft 370 kts 324°
2026-05-07 21:06 37.23913 36.93425 18265 ft 373 kts 323°
2026-05-07 21:06 37.26014 36.91535 18887 ft 375 kts 323°
2026-05-07 21:06 37.28111 36.89636 19521 ft 377 kts 323°
2026-05-07 21:07 37.30240 36.87701 20124 ft 379 kts 323°
2026-05-07 21:07 37.32408 36.85728 20714 ft 382 kts 323°
2026-05-07 21:07 37.34544 36.83784 21263 ft 385 kts 323°
2026-05-07 21:07 37.36726 36.81794 21794 ft 388 kts 323°
2026-05-07 21:08 37.38915 36.79796 22372 ft 390 kts 322°
2026-05-07 21:08 37.41118 36.77785 22901 ft 392 kts 323°
2026-05-07 21:08 37.43319 36.75775 23470 ft 393 kts 322°
2026-05-07 21:08 37.45528 36.73756 23967 ft 396 kts 323°
2026-05-07 21:09 37.47755 36.71704 24500 ft 397 kts 322°
2026-05-07 21:09 37.49882 36.69535 24990 ft 398 kts 317°
2026-05-07 21:09 37.51889 36.67133 25459 ft 399 kts 314°
2026-05-07 21:09 37.53805 36.64596 25959 ft 400 kts 312°
2026-05-07 21:10 37.55669 36.62001 26473 ft 400 kts 311°
2026-05-07 21:10 37.57530 36.59355 26868 ft 403 kts 311°
2026-05-07 21:10 37.59372 36.56719 27295 ft 405 kts 311°
2026-05-07 21:10 37.61237 36.54052 27762 ft 405 kts 312°
2026-05-07 21:11 37.63110 36.51380 28173 ft 407 kts 312°
2026-05-07 21:11 37.64963 36.48741 28541 ft 409 kts 312°
2026-05-07 21:11 37.68750 36.43362 29348 ft 411 kts 312°
2026-05-07 21:12 37.70669 36.40640 29651 ft 414 kts 312°
2026-05-07 21:12 37.72572 36.37937 30094 ft 414 kts 313°
2026-05-07 21:12 37.74464 36.35251 30442 ft 415 kts 313°
2026-05-07 21:12 37.76393 36.32508 30767 ft 417 kts 312°
2026-05-07 21:13 37.78323 36.29762 31347 ft 412 kts 312°
2026-05-07 21:13 37.80203 36.27082 31885 ft 408 kts 312°
2026-05-07 21:13 37.82078 36.24408 32320 ft 406 kts 312°
2026-05-07 21:13 37.83947 36.21740 32711 ft 405 kts 312°
2026-05-07 21:14 37.85815 36.19078 33101 ft 404 kts 312°
2026-05-07 21:14 37.87651 36.16465 33461 ft 403 kts 312°
2026-05-07 21:14 37.89530 36.13789 33769 ft 403 kts 312°
2026-05-07 21:14 37.91391 36.11137 34080 ft 402 kts 312°
2026-05-07 21:15 37.93256 36.08476 34382 ft 402 kts 312°
2026-05-07 21:15 37.95118 36.05819 34640 ft 401 kts 312°
2026-05-07 21:15 37.96962 36.03183 34868 ft 401 kts 312°
2026-05-07 21:15 37.98847 36.00486 35034 ft 403 kts 312°
2026-05-07 21:16 38.00720 35.97804 35197 ft 405 kts 312°
2026-05-07 21:16 38.02591 35.95122 35421 ft 405 kts 312°
2026-05-07 21:16 38.04474 35.92421 35624 ft 405 kts 312°
2026-05-07 21:16 38.06348 35.89731 35825 ft 405 kts 312°
2026-05-07 21:17 38.08192 35.87082 36030 ft 405 kts 312°
2026-05-07 21:17 38.10065 35.84388 36238 ft 406 kts 312°
2026-05-07 21:17 38.13841 35.78952 36236 ft 410 kts 312°
2026-05-07 21:18 38.17589 35.73550 36236 ft 408 kts 312°
2026-05-07 21:18 38.21355 35.68111 36237 ft 408 kts 312°
2026-05-07 21:19 38.25135 35.62641 36237 ft 408 kts 312°
2026-05-07 21:19 38.28880 35.57213 36233 ft 409 kts 312°
2026-05-07 21:20 38.32636 35.51761 36235 ft 408 kts 312°
2026-05-07 21:20 38.36380 35.46318 36231 ft 408 kts 312°
2026-05-07 21:21 38.40124 35.40863 36237 ft 409 kts 312°
2026-05-07 21:21 38.43861 35.35407 36237 ft 408 kts 312°
2026-05-07 21:22 38.47602 35.29937 36241 ft 408 kts 311°
2026-05-07 21:22 38.51337 35.24466 36240 ft 407 kts 311°
2026-05-07 21:23 38.55043 35.18979 36234 ft 408 kts 311°
2026-05-07 21:23 38.58703 35.13443 36247 ft 409 kts 311°
2026-05-07 21:24 38.62337 35.07922 36244 ft 408 kts 311°
2026-05-07 21:24 38.66003 35.02354 36237 ft 408 kts 311°
2026-05-07 21:25 38.69698 34.96738 36244 ft 409 kts 311°
2026-05-07 21:25 38.73336 34.91205 36224 ft 409 kts 311°
2026-05-07 21:26 38.77002 34.85619 36212 ft 408 kts 311°
2026-05-07 21:26 38.80651 34.80051 36217 ft 408 kts 311°
2026-05-07 21:27 38.84323 34.74437 36222 ft 407 kts 311°
2026-05-07 21:27 38.87961 34.68869 36198 ft 408 kts 311°
2026-05-07 21:28 38.91623 34.63253 36193 ft 408 kts 311°
2026-05-07 21:28 38.95271 34.57648 36209 ft 408 kts 311°
2026-05-07 21:29 38.98892 34.52072 36200 ft 409 kts 311°
2026-05-07 21:29 39.02548 34.46438 36206 ft 410 kts 311°
2026-05-07 21:30 39.06210 34.40782 36202 ft 409 kts 311°
2026-05-07 21:30 39.09820 34.35127 36188 ft 410 kts 309°
2026-05-07 21:31 39.12982 34.29012 36193 ft 410 kts 303°
2026-05-07 21:31 39.16347 34.23056 36199 ft 409 kts 311°
2026-05-07 21:32 39.20082 34.17487 36185 ft 408 kts 312°
2026-05-07 21:32 39.23797 34.11983 36195 ft 408 kts 312°
2026-05-07 21:33 39.27480 34.06417 36192 ft 408 kts 311°
2026-05-07 21:33 39.31116 34.00841 36184 ft 409 kts 311°
2026-05-07 21:34 39.34762 33.95206 36185 ft 408 kts 311°
2026-05-07 21:34 39.38394 33.89570 36184 ft 408 kts 311°
2026-05-07 21:35 39.42005 33.83953 36184 ft 408 kts 311°
2026-05-07 21:35 39.45622 33.78316 36186 ft 408 kts 311°
2026-05-07 21:36 39.49206 33.72631 36182 ft 408 kts 310°
2026-05-07 21:36 39.52744 33.66916 36184 ft 408 kts 310°
2026-05-07 21:37 39.56288 33.61177 36186 ft 408 kts 310°
2026-05-07 21:37 39.59835 33.55464 36191 ft 408 kts 311°
2026-05-07 21:38 39.63443 33.49823 36192 ft 407 kts 311°
2026-05-07 21:38 39.67043 33.44218 36191 ft 408 kts 311°
2026-05-07 21:39 39.70173 33.39326 36198 ft 408 kts 311°
2026-05-07 21:39 39.73782 33.33669 36192 ft 406 kts 311°
2026-05-07 21:40 39.77385 33.28004 36199 ft 408 kts 311°
2026-05-07 21:40 39.80990 33.22323 36209 ft 408 kts 311°
2026-05-07 21:41 39.84582 33.16654 36203 ft 407 kts 311°
2026-05-07 21:41 39.88172 33.10974 36206 ft 409 kts 311°
2026-05-07 21:42 39.91763 33.05281 36211 ft 408 kts 311°
2026-05-07 21:42 39.95361 32.99568 36209 ft 407 kts 311°
2026-05-07 21:43 39.98950 32.93861 36205 ft 407 kts 311°
2026-05-07 21:43 40.02552 32.88124 36200 ft 408 kts 311°
2026-05-07 21:44 40.06170 32.82348 36200 ft 408 kts 311°
2026-05-07 21:44 40.09616 32.76486 36198 ft 410 kts 307°
2026-05-07 21:45 40.12696 32.70614 36205 ft 409 kts 306°
2026-05-07 21:45 40.15937 32.64344 36199 ft 408 kts 307°
2026-05-07 21:46 40.19121 32.58244 36200 ft 409 kts 307°
2026-05-07 21:46 40.22353 32.52096 36197 ft 408 kts 307°
2026-05-07 21:47 40.25589 32.45950 36196 ft 408 kts 307°
2026-05-07 21:47 40.28812 32.39828 36198 ft 408 kts 307°
2026-05-07 21:48 40.32025 32.33713 36192 ft 408 kts 307°
2026-05-07 21:48 40.35239 32.27586 36196 ft 408 kts 307°
2026-05-07 21:49 40.38448 32.21455 36196 ft 407 kts 307°
2026-05-07 21:49 40.41659 32.15311 36203 ft 408 kts 307°
2026-05-07 21:50 40.44860 32.09160 36211 ft 409 kts 307°
2026-05-07 21:50 40.48030 32.03046 36208 ft 407 kts 307°
2026-05-07 21:51 40.51230 31.96864 36216 ft 409 kts 306°
2026-05-07 21:51 40.54420 31.90686 36213 ft 409 kts 307°
2026-05-07 21:52 40.57426 31.84298 36208 ft 412 kts 300°
2026-05-07 21:52 40.59699 31.77391 36206 ft 415 kts 293°
2026-05-07 21:53 40.61557 31.70163 36202 ft 415 kts 291°
2026-05-07 21:53 40.63326 31.62900 36198 ft 416 kts 291°
2026-05-07 21:54 40.65075 31.55697 36198 ft 414 kts 291°
2026-05-07 21:54 40.66845 31.48442 36202 ft 416 kts 291°
2026-05-07 21:55 40.68632 31.41127 36193 ft 416 kts 291°
2026-05-07 21:55 40.70398 31.33892 36186 ft 417 kts 291°
2026-05-07 21:56 40.72165 31.26630 36185 ft 418 kts 291°
2026-05-07 21:56 40.73922 31.19389 36178 ft 417 kts 291°
2026-05-07 21:57 40.75689 31.12086 36168 ft 418 kts 291°
2026-05-07 21:57 40.77453 31.04763 35884 ft 418 kts 291°
2026-05-07 21:58 40.78352 31.01039 35432 ft 434 kts 291°
2026-05-07 21:58 40.79269 30.97245 34900 ft 439 kts 291°
2026-05-07 21:58 40.80193 30.93398 34364 ft 437 kts 291°
2026-05-07 21:58 40.81092 30.89632 33746 ft 433 kts 291°
2026-05-07 21:59 40.81990 30.85862 33122 ft 430 kts 291°
2026-05-07 21:59 40.82880 30.82118 32501 ft 426 kts 291°
2026-05-07 21:59 40.83767 30.78382 31878 ft 423 kts 291°
2026-05-07 21:59 40.84633 30.74734 31268 ft 420 kts 291°
2026-05-07 22:00 40.85506 30.71092 30656 ft 416 kts 292°
2026-05-07 22:00 40.86470 30.67526 30045 ft 411 kts 295°
2026-05-07 22:00 40.87627 30.64126 29464 ft 406 kts 300°
2026-05-07 22:00 40.88913 30.60852 28909 ft 402 kts 301°
2026-05-07 22:01 40.90267 30.57628 28372 ft 397 kts 302°
2026-05-07 22:01 40.91627 30.54489 27841 ft 393 kts 303°
2026-05-07 22:01 40.92984 30.51380 27306 ft 390 kts 303°
2026-05-07 22:01 40.94317 30.48321 26757 ft 388 kts 303°
2026-05-07 22:02 40.95658 30.45221 26201 ft 385 kts 303°
2026-05-07 22:02 40.96968 30.42178 25652 ft 382 kts 303°
2026-05-07 22:02 40.98263 30.39157 25104 ft 379 kts 302°
2026-05-07 22:02 40.99544 30.36155 24562 ft 377 kts 302°
2026-05-07 22:03 41.00818 30.33160 24028 ft 375 kts 302°
2026-05-07 22:03 41.02086 30.30168 23493 ft 372 kts 302°
2026-05-07 22:03 41.03350 30.27179 22971 ft 370 kts 302°
2026-05-07 22:03 41.04607 30.24203 22453 ft 367 kts 301°
2026-05-07 22:04 41.05837 30.21290 21946 ft 365 kts 301°
2026-05-07 22:04 41.07078 30.18348 21425 ft 363 kts 301°
2026-05-07 22:04 41.08284 30.15485 20921 ft 361 kts 301°
2026-05-07 22:04 41.09506 30.12583 20404 ft 359 kts 301°
2026-05-07 22:05 41.10710 30.09721 19975 ft 354 kts 301°
2026-05-07 22:05 41.11901 30.06885 19520 ft 351 kts 301°
2026-05-07 22:05 41.13075 30.04086 19003 ft 349 kts 301°
2026-05-07 22:05 41.14245 30.01296 18528 ft 346 kts 301°
2026-05-07 22:06 41.15413 29.98508 18039 ft 344 kts 300°
2026-05-07 22:06 41.15630 29.97988 17941 ft 344 kts 300°
2026-05-07 22:06 41.16784 29.95232 17388 ft 343 kts 300°
2026-05-07 22:06 41.17941 29.92465 16852 ft 342 kts 300°
2026-05-07 22:07 41.19082 29.89733 16341 ft 341 kts 300°
2026-05-07 22:07 41.20225 29.86994 15872 ft 338 kts 300°
2026-05-07 22:07 41.21354 29.84286 15363 ft 337 kts 300°
2026-05-07 22:07 41.22478 29.81587 14868 ft 335 kts 300°
2026-05-07 22:08 41.23598 29.78897 14426 ft 332 kts 300°
2026-05-07 22:08 41.24710 29.76223 13920 ft 331 kts 300°
2026-05-07 22:08 41.25817 29.73558 13457 ft 328 kts 300°
2026-05-07 22:08 41.26907 29.70934 12994 ft 326 kts 300°
2026-05-07 22:09 41.28006 29.68285 12480 ft 325 kts 300°
2026-05-07 22:09 41.29085 29.65681 12065 ft 322 kts 299°
2026-05-07 22:09 41.30153 29.63101 11615 ft 320 kts 299°
2026-05-07 22:09 41.31229 29.60499 11142 ft 318 kts 299°
2026-05-07 22:10 41.32285 29.57945 10798 ft 312 kts 299°
2026-05-07 22:10 41.33308 29.55467 10672 ft 300 kts 299°
2026-05-07 22:10 41.34280 29.53111 10566 ft 287 kts 299°
2026-05-07 22:10 41.35222 29.50824 10453 ft 276 kts 299°
2026-05-07 22:11 41.36138 29.48600 10204 ft 270 kts 299°
2026-05-07 22:11 41.37026 29.46445 9932 ft 268 kts 299°
2026-05-07 22:11 41.37917 29.44277 9673 ft 265 kts 299°
2026-05-07 22:11 41.38800 29.42131 9424 ft 264 kts 298°
2026-05-07 22:12 41.39685 29.39975 9182 ft 265 kts 299°
2026-05-07 22:12 41.40555 29.37857 8939 ft 263 kts 298°
2026-05-07 22:12 41.41438 29.35704 8683 ft 262 kts 298°
2026-05-07 22:12 41.42314 29.33568 8434 ft 261 kts 297°
2026-05-07 22:13 41.43180 29.31452 8167 ft 260 kts 297°
2026-05-07 22:13 41.44039 29.29354 7893 ft 259 kts 297°
2026-05-07 22:13 41.44894 29.27265 7614 ft 257 kts 297°
2026-05-07 22:13 41.45755 29.25157 7350 ft 256 kts 297°
2026-05-07 22:14 41.46595 29.23101 7115 ft 255 kts 297°
2026-05-07 22:14 41.47450 29.21007 6889 ft 254 kts 297°
2026-05-07 22:14 41.48293 29.18941 6663 ft 254 kts 297°
2026-05-07 22:14 41.49130 29.16888 6438 ft 253 kts 296°
2026-05-07 22:15 41.49963 29.14843 6215 ft 253 kts 297°
2026-05-07 22:15 41.50808 29.12766 5988 ft 253 kts 296°
2026-05-07 22:15 41.51643 29.10713 5761 ft 250 kts 297°
2026-05-07 22:15 41.52472 29.08674 5538 ft 250 kts 297°
2026-05-07 22:16 41.53294 29.06649 5316 ft 249 kts 297°
2026-05-07 22:16 41.54110 29.04640 5095 ft 249 kts 296°
2026-05-07 22:16 41.54942 29.02591 4868 ft 249 kts 296°
2026-05-07 22:16 41.55759 29.00576 4641 ft 245 kts 296°
2026-05-07 22:17 41.56562 28.98594 4453 ft 238 kts 296°
2026-05-07 22:17 41.57330 28.96700 4337 ft 229 kts 296°
2026-05-07 22:17 41.58078 28.94859 4101 ft 226 kts 297°
2026-05-07 22:17 41.58844 28.93029 3983 ft 223 kts 297°
2026-05-07 22:18 41.59613 28.91223 3985 ft 227 kts 297°
2026-05-07 22:18 41.61165 28.87570 3984 ft 226 kts 297°
2026-05-07 22:18 41.61935 28.85747 3984 ft 226 kts 297°
2026-05-07 22:19 41.62717 28.83899 3981 ft 227 kts 297°
2026-05-07 22:19 41.63449 28.82061 3982 ft 224 kts 291°
2026-05-07 22:19 41.63778 28.80101 3978 ft 212 kts 264°
2026-05-07 22:19 41.63292 28.78259 3988 ft 213 kts 237°
2026-05-07 22:20 41.62266 28.76838 3981 ft 213 kts 218°
2026-05-07 22:20 41.60997 28.75807 3982 ft 216 kts 211°
2026-05-07 22:20 41.59610 28.75057 3982 ft 219 kts 195°
2026-05-07 22:20 41.58069 28.74927 3984 ft 222 kts 181°
2026-05-07 22:21 41.56515 28.75059 3983 ft 223 kts 180°
2026-05-07 22:21 41.54977 28.75136 3984 ft 222 kts 182°
2026-05-07 22:21 41.53435 28.75166 3981 ft 222 kts 183°
2026-05-07 22:21 41.51878 28.75188 3983 ft 222 kts 183°
2026-05-07 22:22 41.50363 28.75217 3981 ft 212 kts 182°
2026-05-07 22:22 41.48911 28.75248 3983 ft 205 kts 183°
2026-05-07 22:22 41.47506 28.75272 3971 ft 204 kts 183°
2026-05-07 22:22 41.46064 28.75296 3762 ft 209 kts 183°
2026-05-07 22:23 41.44605 28.75324 3457 ft 208 kts 183°
2026-05-07 22:23 41.43167 28.75354 3140 ft 207 kts 183°
2026-05-07 22:23 41.41763 28.75382 2859 ft 193 kts 183°
2026-05-07 22:23 41.40470 28.75407 2604 ft 181 kts 183°
2026-05-07 22:24 41.39246 28.75428 2381 ft 168 kts 183°
2026-05-07 22:24 41.38100 28.75449 2164 ft 161 kts 183°
2026-05-07 22:24 41.36977 28.75469 1911 ft 159 kts 182°
2026-05-07 22:24 41.35897 28.75490 1702 ft 154 kts 182°
2026-05-07 22:25 41.34826 28.75509 1494 ft 154 kts 182°
2026-05-07 22:25 41.33768 28.75528 1291 ft 153 kts 181°
2026-05-07 22:25 41.32698 28.75549 1086 ft 153 kts 181°
2026-05-07 22:25 41.31633 28.75567 883 ft 153 kts 181°
2026-05-07 22:26 41.30582 28.75585 680 ft 152 kts 180°
2026-05-07 22:26 41.29507 28.75605 472 ft 153 kts 180°
2026-05-07 22:26 41.28466 28.75619 335 ft 146 kts 179°
2026-05-07 22:26 41.27656 28.75638 333 ft 83 kts 179°
2026-05-07 22:27 41.27255 28.75647 333 ft 42 kts 179°
2026-05-07 22:27 41.27016 28.75651 333 ft 26 kts 179°
2026-05-07 22:27 41.26892 28.75615 333 ft 18 kts 205°
2026-05-07 22:27 41.26782 28.75529 333 ft 17 kts 213°
2026-05-07 22:28 41.26731 28.75475 333 ft 16 kts 236°
2026-05-07 22:28 41.26636 28.75422 333 ft 15 kts 185°
2026-05-07 22:28 41.26527 28.75423 333 ft 15 kts 178°
2026-05-07 22:28 41.26419 28.75425 333 ft 15 kts 179°
2026-05-07 22:29 41.26326 28.75428 333 ft 11 kts 179°
2026-05-07 22:29 41.26250 28.75432 333 ft 10 kts 176°
2026-05-07 22:29 41.26153 28.75442 333 ft 16 kts 175°
2026-05-07 22:29 41.26030 28.75452 333 ft 17 kts 178°
2026-05-07 22:30 41.25935 28.75417 333 ft 13 kts 247°
2026-05-07 22:30 41.25927 28.75296 333 ft 13 kts 268°
2026-05-07 22:30 41.25925 28.75200 333 ft 7 kts 268°
2026-05-07 22:30 41.25939 28.75140 333 ft 7 kts 287°
2026-05-07 22:31 41.25930 28.75072 333 ft 7 kts 251°
2026-05-07 22:31 41.25914 28.75010 333 ft 6 kts 251°
2026-05-07 22:31 41.25907 28.74983 333 ft 1 kts 251°
2026-05-07 22:31 41.25906 28.74978 333 ft 0 kts 251°
2026-05-07 22:32 41.25905 28.74976 333 ft 0 kts 251°